Location: Ingoldesthorpe
(52.8667°N, 0.5167°E)
Time: 19:36:44
(UTC+00:00)

Cosmos 1980 Rocket - Pass Details

Date: 19 May 2025
Orbit: 829 x 848 km, 71.0° (Epoch: 22 June)

Event Time Altitude Azimuth Distance (km) Brightness Sun altitude
Rises 22:28:11 0° 324° (NW) 3,384 6.9 -14.8°
Reaches altitude 10° 22:30:46 10° 317° (NW) 2,447 5.7 -14.9°
Maximum altitude 22:35:52 38° 251° (WSW) 1,259 3.1 -15.2°
Enters shadow 22:39:26 18° 194° (SSW) 1,928 3.6 -15.4°
